Voltar ao catálogo

COSMOS 2251 DEB

AtivoLEO
NORAD 36420·DEBRIS·🇷🇺 Russia

Lançado Jun 16, 1993 de Plesetsk Cosmodrome

Loading…

Próximas Passagens (próximas 24 horas)

TLE

AtualizadoSource: Space-Track

Época: Sep 14, 2026, 09:35 UTC

1 36420U 93036AZT 26257.39969292  .00000210  00000-0  79445-4 0  9993
2 36420  74.0366 128.6364 0018014 156.1863  19.2651 14.37104083889962

Acompanhe COSMOS 2251 DEB em tempo real com AllMySat

Download on the App Store